{"data":{"norad_id":51115,"epoch":"2026-09-20T04:35:33.294048Z","epoch_age_seconds":74862,"freshness":"FRESH","line1":"1 51115U 22005M   26263.19135757 -.00001268  00000+0 -27219-4 0  9992","line2":"2 51115  53.1598 127.2097 0001395 111.3040 248.8111 15.33539280258359","mean_motion":15.3353928,"eccentricity":0.0001395,"inclination_deg":53.1598,"raan_deg":127.2097,"arg_perigee_deg":111.304,"mean_anomaly_deg":248.8111,"bstar":-2.7219e-5,"rev_number":25835,"period_min":93.900431425532,"perigee_km":464.30802364599,"apogee_km":466.21733215613,"semimajor_km":6843.3996779011,"source":"CELESTRAK","updated_at":"2026-09-20T09:00:39.586016Z"}}